GEFSSE_850_meantemp_000.txt.gz
Temperature
15 14 15 15 14 14 14 13 13 13 12 11 11 11 11 11 11 11 11 11 11 11 11 10 11 11 12 12 11 11 12 12 12 12 12 12 11 11 11 12 12 11 12
15 14 14 15 14 14 13 13 13 12 11 11 11 11 11 11 11 11 11 11 11 11 11 10 10 11 11 11 11 11 12 12 12 12 12 11 11 12 12 11 11 11 12
15 14 14 14 14 14 13 13 12 11 11 11 11 11 12 12 11 11 11 10 10 10 10 10 10 11 10 10 11 11 12 12 12 12 11 11 11 11 11 11 11 11 11
15 14 14 14 14 13 13 13 11 11 11 11 12 12 12 11 11 10 10 10 10 10 10 10 12 12 10 11 11 11 13 13 12 12 11 11 11 10 10 10 10 11 11
14 14 14 14 14 13 13 12 12 11 11 11 11 11 11 11 11 10 10 10 10 10 10 12 14 13 13 13 12 13 13 13 12 11 11 11 11 11 10 10 10 10 10
14 14 14 14 13 13 13 12 11 11 11 11 11 11 11 11 10 10 10 10 10 10 12 14 14 14 14 13 13 13 13 12 12 11 11 11 11 11 12 11 11 11 10
14 14 13 13 13 13 13 12 11 11 11 11 11 11 11 11 11 10 10 10 11 11 12 13 13 13 13 13 13 13 13 12 11 11 11 11 11 12 11 12 12 11 10
14 14 13 13 13 14 13 13 12 11 11 11 11 11 11 10 10 10 11 10 11 11 12 12 13 13 13 13 12 12 13 13 12 12 12 12 12 12 12 12 12 12 11
14 14 14 14 15 15 15 16 14 12 11 11 11 11 10 11 10 10 10 11 11 11 12 12 13 13 13 13 12 12 13 13 13 12 13 12 12 12 12 12 12 12 12
15 15 15 15 15 14 16 18 16 14 12 11 11 12 12 11 10 10 10 10 10 11 12 12 13 13 13 13 12 13 13 13 12 12 13 12 13 12 12 12 12 12 12
16 16 16 16 16 15 15 16 16 15 14 12 12 13 12 10 10 10 10 10 11 11 12 13 13 13 13 13 13 13 13 13 12 12 12 13 12 12 12 11 11 11 11
18 18 18 18 17 16 17 16 16 14 14 12 11 12 11 10 10 10 11 11 11 12 12 13 13 13 13 12 12 13 13 13 13 13 12 13 12 12 12 12 11 11 11
18 18 19 18 17 17 17 16 16 15 14 13 12 12 12 12 11 11 10 11 11 12 12 12 12 13 13 13 12 12 13 13 13 13 12 13 12 12 12 12 12 11 11
19 19 19 19 18 18 18 17 17 16 16 15 15 14 13 12 12 11 10 11 11 11 11 12 12 12 13 13 13 12 12 12 13 13 13 13 12 12 12 12 12 11 11
19 19 19 19 19 19 18 18 17 17 17 16 15 14 14 13 12 12 11 11 12 11 11 11 11 11 11 12 12 12 13 13 13 13 13 13 12 12 12 12 12 11 11
20 20 19 19 19 19 19 18 18 17 17 16 15 15 14 14 13 12 12 12 12 12 11 11 10 10 11 11 11 12 13 12 13 13 12 12 12 12 12 12 12 11 11
21 20 19 19 19 20 20 19 18 18 17 17 16 15 15 14 13 13 13 12 12 12 11 11 11 11 11 11 11 11 11 12 12 12 12 12 12 12 12 12 12 11 11
21 21 20 20 20 20 20 20 19 18 18 17 17 16 15 14 14 13 13 12 12 11 11 10 10 10 10 10 10 10 11 11 11 12 12 12 12 12 12 12 12 12 11
22 22 21 21 20 20 20 20 20 19 18 18 17 16 16 15 14 13 13 13 12 11 11 10 10 9 9 9 9 10 10 10 11 12 12 12 12 12 12 11 12 11 11
22 21 20 20 21 21 21 20 19 19 19 19 18 18 16 15 15 14 13 13 12 11 10 10 10 9 9 9 9 9 10 10 10 10 11 12 12 12 12 11 11 11 11
22 21 21 21 21 21 21 20 20 20 20 20 19 18 17 17 16 15 14 13 13 12 11 10 10 10 9 9 9 9 9 9 9 10 11 12 11 12 11 11 11 11 11
20 21 22 21 21 21 21 20 19 19 19 20 20 19 19 18 17 16 15 14 13 12 11 10 10 10 9 9 9 9 9 10 10 10 11 11 11 11 11 10 10 11 11
20 19 20 21 21 21 21 19 19 19 20 20 20 21 20 19 18 17 16 15 14 12 12 11 10 10 10 9 9 9 9 10 10 10 10 10 10 10 10 10 10 10 11
19 19 19 20 20 20 19 19 20 20 20 21 20 20 20 19 19 18 17 15 14 13 12 11 11 11 10 10 10 9 9 10 10 10 10 9 9 10 10 10 11 11 11
20 20 20 21 21 21 21 21 20 20 20 20 20 20 20 19 19 18 17 16 15 14 13 12 11 11 11 11 11 10 10 9 9 9 9 9 9 9 10 11 11 11 11
20 20 20 21 21 21 21 21 21 21 21 21 21 20 19 19 19 18 17 16 15 15 14 13 12 11 12 11 11 11 9 9 9 9 9 9 9 9 9 10 11 11 11

GEFSSE_850_meantemp_006.txt.gz
Temperature
17 17 16 16 15 14 14 14 14 14 13 11 11 11 11 11 12 12 11 12 12 12 12 12 11 11 12 12 12 12 12 12 12 12 12 12 13 12 12 12 12 12 12
17 16 16 16 15 14 14 14 14 13 12 11 11 11 11 11 11 11 11 11 11 11 11 11 11 11 11 11 11 12 12 12 12 12 12 12 13 13 12 12 12 12 12
17 16 16 15 15 14 14 14 13 13 12 11 11 11 11 11 11 11 11 11 11 11 11 12 11 11 10 11 11 12 13 13 12 12 12 11 12 12 12 12 12 12 12
16 16 16 15 15 14 14 13 13 13 12 12 11 11 11 11 11 12 11 12 11 11 12 12 11 10 10 10 11 12 12 12 12 12 12 11 12 12 11 11 12 12 12
16 15 15 15 14 14 13 13 13 12 12 11 11 11 11 11 11 11 12 12 12 12 13 13 12 11 10 10 11 12 12 12 11 11 11 11 12 12 13 13 13 12 12
16 15 15 15 14 14 13 13 13 12 11 11 11 11 11 11 11 11 12 12 12 12 12 13 12 12 11 12 11 12 12 12 11 11 11 11 12 12 12 13 13 12 12
16 16 15 15 14 14 13 13 13 12 11 11 11 11 11 11 11 11 11 11 11 12 12 12 13 13 13 13 12 12 12 12 11 11 11 11 12 13 13 13 13 12 12
16 16 15 15 14 13 13 13 13 12 12 11 11 12 11 11 11 11 11 11 11 11 11 12 13 13 13 13 13 13 12 12 11 11 11 12 12 13 13 13 13 13 12
16 16 15 15 14 14 14 14 13 12 12 12 12 12 12 12 11 11 11 11 11 11 12 12 13 13 13 13 13 13 13 12 12 11 11 12 13 13 12 12 13 12 12
16 15 15 15 15 15 15 15 14 13 12 12 13 13 13 13 12 11 11 12 12 12 12 12 13 13 13 14 14 14 13 13 12 12 12 12 12 13 12 12 12 12 12
16 16 15 15 14 14 15 16 15 15 14 14 14 14 14 13 12 12 13 13 12 12 12 13 13 13 13 13 14 14 14 13 13 12 12 12 13 13 13 13 12 12 12
17 16 16 15 15 14 14 15 16 16 16 16 16 15 14 13 12 11 12 13 13 13 13 13 13 13 13 13 13 13 14 13 13 12 12 13 13 13 13 13 13 13 12
19 18 17 16 15 15 15 15 17 17 17 16 16 15 14 13 12 12 13 13 14 14 14 14 13 13 13 13 13 13 13 13 12 12 12 13 13 13 13 12 12 12 12
20 19 18 17 16 16 16 16 17 17 16 17 16 14 14 13 13 13 14 14 14 14 14 13 13 13 13 13 13 13 13 13 13 13 13 13 13 13 13 13 13 12 12
20 20 19 18 17 17 17 17 18 17 17 17 16 16 15 14 14 14 14 14 13 13 13 12 13 13 13 13 14 14 13 13 13 13 13 14 14 13 13 13 13 12 12
20 20 19 19 18 18 18 18 18 18 17 17 17 17 16 15 15 14 14 14 14 14 14 13 13 13 12 12 13 13 13 13 13 13 14 14 14 14 14 13 13 13 13
20 20 19 19 19 19 18 18 18 18 17 17 17 17 17 16 16 15 15 15 15 14 14 14 14 13 12 12 12 12 12 13 13 14 14 14 14 14 14 14 13 13 13
21 20 19 19 18 19 19 19 18 18 17 18 18 18 18 17 17 16 16 16 15 15 14 14 14 13 13 12 12 12 12 12 12 13 13 13 13 14 14 14 14 14 13
21 21 20 19 19 19 19 19 18 18 18 18 19 19 19 19 18 18 17 17 16 15 14 14 14 13 13 12 12 12 11 11 12 12 12 12 12 13 13 14 14 14 14
22 21 21 20 19 18 18 18 18 18 19 19 19 19 19 19 19 18 18 18 16 15 15 14 13 13 12 11 11 11 11 11 11 11 11 11 11 11 12 12 13 13 13
21 21 21 20 20 19 18 17 17 18 19 18 19 19 19 19 19 18 18 17 16 15 15 14 13 12 12 11 10 10 10 10 10 10 10 10 11 11 11 12 12 12 12
20 20 20 20 19 19 18 18 17 17 18 18 18 18 18 18 17 16 16 16 15 14 13 13 12 11 11 11 10 10 10 10 10 10 10 11 12 11 11 11 11 11 11
19 19 19 19 19 18 18 17 17 16 16 16 17 17 17 16 15 15 14 14 13 12 12 12 12 11 11 11 10 10 10 10 10 11 11 11 11 11 11 11 11 11 11
18 19 19 18 18 17 17 17 16 16 15 16 15 15 15 15 15 15 14 13 12 12 11 11 11 11 11 11 11 11 10 11 10 11 11 11 11 11 11 11 11 11 11
18 18 18 17 17 17 17 16 16 15 15 15 14 14 15 15 15 15 15 14 13 12 12 11 11 11 11 11 11 11 10 10 10 10 10 10 10 10 10 10 10 10 10
18 17 17 17 17 16 16 16 15 15 15 14 14 14 14 14 14 14 14 14 13 12 12 12 12 12 11 11 11 11 11 10 10 10 9 9 9 10 10 10 10 10 10

GEFSSE_850_meantemp_012.txt.gz
Temperature
17 16 16 15 15 15 14 14 14 14 13 13 11 11 11 11 11 11 11 11 11 11 11 11 11 12 12 12 11 12 13 13 13 13 13 13 12 11 11 12 12 12 12
18 17 16 15 15 14 14 14 13 13 13 12 11 11 11 11 11 11 11 11 11 10 11 11 11 11 11 11 11 12 13 13 12 12 12 12 12 12 12 12 12 12 12
18 17 16 15 15 14 14 13 13 13 13 11 11 11 11 11 11 10 10 10 10 10 11 11 11 11 11 11 12 13 12 12 11 11 12 12 12 13 13 13 12 12 12
17 17 16 15 15 14 14 13 13 13 12 11 11 11 11 11 11 11 11 11 10 11 12 12 11 11 11 11 12 12 12 11 11 12 12 12 12 12 13 13 12 12 12
18 17 16 15 15 14 14 13 13 13 12 11 11 11 11 11 11 11 12 12 12 13 13 13 12 11 11 11 12 12 12 11 11 12 12 12 12 12 13 13 13 13 13
18 17 16 15 15 14 14 13 13 13 12 11 11 11 11 11 11 12 13 13 13 13 13 13 13 12 12 13 13 13 12 12 11 12 12 12 12 12 12 13 13 13 13
18 17 16 15 15 15 14 14 13 13 13 11 11 11 11 11 12 13 13 13 13 13 13 13 13 14 14 14 13 13 12 12 12 12 12 12 12 12 12 13 13 13 13
18 17 16 15 15 15 14 14 14 14 14 12 11 12 13 13 13 13 13 13 13 13 13 13 14 14 14 14 14 13 12 12 13 13 13 12 12 12 12 13 13 13 12
18 17 16 15 15 15 15 15 15 15 15 13 13 14 14 14 14 14 13 13 12 12 13 13 13 13 14 14 14 13 13 12 12 13 13 12 12 12 13 13 13 13 12
18 17 17 16 16 16 16 16 16 16 15 14 15 15 15 15 14 14 13 13 13 13 12 12 13 13 14 14 14 13 13 12 12 12 13 13 12 12 13 13 13 13 13
19 18 17 17 17 16 16 16 17 17 16 16 15 15 15 15 15 14 13 13 13 13 13 13 13 14 14 14 14 14 13 13 12 12 13 13 13 12 13 13 13 13 13
21 19 18 18 17 17 17 17 17 17 17 16 16 16 15 15 15 15 15 15 14 14 14 14 14 14 14 14 14 14 13 13 13 12 13 13 13 13 12 13 13 13 13
21 20 20 19 18 17 17 17 17 17 17 17 16 16 16 16 16 16 16 16 16 15 15 15 15 14 14 14 14 14 14 13 13 13 13 13 13 13 13 13 13 13 13
21 20 20 19 18 18 18 17 17 17 17 17 17 17 16 16 17 17 16 16 16 16 15 15 15 15 14 14 14 14 14 14 14 13 13 13 13 13 13 13 13 13 13
21 20 20 19 19 18 18 18 17 17 17 17 17 17 17 17 17 17 17 17 16 16 16 15 15 15 15 14 14 14 14 13 13 13 13 13 13 13 13 13 13 13 13
22 21 20 19 19 19 18 18 18 17 18 17 17 17 17 17 17 17 17 17 17 16 16 15 15 15 15 14 14 14 14 14 13 13 13 13 13 13 13 13 13 13 13
22 21 21 20 19 19 19 19 18 18 18 18 18 18 17 17 17 17 17 17 17 16 15 15 14 14 14 14 14 14 14 14 13 13 13 13 13 13 13 13 12 12 12
20 21 21 20 20 20 19 19 19 18 18 18 18 18 17 17 17 16 16 16 15 14 14 14 13 13 13 13 13 14 13 13 13 13 12 12 12 12 12 12 12 12 12
21 21 20 20 20 20 19 19 19 18 18 18 18 18 17 16 16 15 15 15 14 14 14 13 13 13 13 13 12 12 12 12 13 12 12 12 12 12 12 12 12 12 12
21 21 20 20 19 19 19 18 18 18 18 18 18 17 17 16 16 15 14 14 14 13 13 13 12 12 12 12 11 11 11 12 12 12 12 11 11 12 11 11 11 11 11
20 20 19 19 19 19 18 18 18 18 18 18 17 17 16 15 15 14 14 13 13 13 13 13 12 12 12 11 11 11 11 11 11 11 11 11 12 12 12 11 11 11 11
19 19 19 19 19 19 18 18 17 17 17 17 16 15 15 14 14 14 13 13 13 13 13 13 12 12 12 11 11 10 10 11 11 11 11 11 12 12 11 12 12 11 11
19 19 19 18 18 18 18 17 17 16 16 15 15 15 14 14 13 13 13 13 13 13 13 13 13 12 12 12 11 10 10 10 11 11 11 11 11 11 11 11 11 11 11
17 17 17 17 17 17 16 16 16 15 14 14 14 14 13 13 13 13 13 13 12 12 12 13 13 12 12 12 12 11 11 10 10 10 11 11 11 10 10 10 10 10 10
16 16 16 16 16 15 15 15 14 14 13 13 13 13 13 12 12 12 12 12 12 12 12 12 12 12 12 12 12 11 11 11 10 10 10 11 11 11 11 10 10 10 10
15 15 15 15 15 14 14 14 14 13 13 13 13 13 12 12 12 12 11 11 11 11 11 11 11 11 11 11 11 11 11 11 11 10 10 11 11 12 12 11 11 11 11

GEFSSE_850_meantemp_018.txt.gz
Temperature
19 18 16 15 15 15 14 14 14 13 13 13 12 11 11 11 11 11 11 11 11 11 12 12 12 12 12 12 12 12 11 11 12 13 13 12 11 12 12 12 12 12 12
19 18 16 15 15 15 14 14 13 13 13 13 11 11 11 10 10 11 11 10 10 10 11 11 11 12 12 12 11 11 11 11 12 13 13 13 12 12 12 12 12 12 12
19 18 16 15 15 15 14 14 13 13 13 12 11 11 11 11 11 10 10 10 10 10 10 11 11 11 11 12 11 11 10 11 12 12 13 13 13 12 12 12 12 12 12
18 17 16 15 15 14 14 13 13 13 13 12 11 11 11 11 11 11 10 10 10 10 11 11 11 11 11 11 11 10 10 11 12 12 12 12 12 12 11 12 12 12 12
19 17 16 15 15 14 14 13 13 13 13 12 11 11 11 12 11 10 10 10 10 11 11 11 11 10 11 11 10 10 11 11 12 12 12 11 12 11 11 12 13 13 13
19 18 17 15 15 14 14 13 13 13 13 12 12 11 11 11 11 10 10 11 11 11 12 12 11 11 11 11 11 10 10 11 12 12 12 11 11 11 11 13 13 14 14
20 18 17 16 15 14 14 13 13 13 13 13 12 12 12 11 11 10 11 11 12 12 12 12 12 11 11 12 11 11 11 11 12 12 12 12 12 12 11 12 14 14 14
19 18 17 16 15 14 14 14 13 13 13 13 13 12 12 12 11 11 11 12 12 11 11 11 11 11 11 12 12 12 12 12 12 12 12 12 12 12 11 11 13 13 13
19 18 17 16 15 15 14 14 14 13 13 14 14 14 14 14 13 12 13 13 12 11 10 10 11 11 12 12 13 13 13 12 12 12 12 12 12 12 11 10 12 13 13
20 18 17 16 16 15 15 15 14 14 14 14 15 15 15 14 14 14 14 13 12 11 11 11 11 11 11 12 13 13 13 13 12 12 12 12 12 12 12 11 11 12 13
22 20 18 17 16 16 15 16 15 15 15 15 15 15 15 15 15 15 14 14 13 13 12 12 11 11 12 12 13 13 13 13 13 13 12 12 12 12 12 11 11 12 12
23 21 19 18 17 16 16 16 16 16 16 16 16 16 16 15 15 15 15 14 14 13 13 12 12 12 12 13 13 13 13 13 13 13 12 12 12 12 12 12 11 11 12
22 21 20 19 18 17 17 17 16 16 16 17 17 16 16 16 16 16 15 15 14 14 13 13 13 13 13 13 13 13 13 13 13 13 13 12 12 12 12 12 12 11 11
21 21 20 19 19 18 17 17 17 17 17 17 17 17 16 17 16 16 16 15 15 14 14 14 13 13 13 13 13 13 13 13 13 13 13 13 12 12 12 12 12 11 11
20 20 20 19 19 18 18 17 17 17 17 17 17 17 17 17 17 16 16 16 15 15 14 14 14 13 13 13 13 13 13 13 13 13 13 13 12 12 12 12 11 11 10
20 20 19 19 19 18 18 18 18 18 17 17 17 17 17 16 16 16 16 15 15 15 14 14 14 13 13 13 13 13 13 13 13 13 13 13 13 12 12 12 11 10 10
20 20 20 20 19 19 19 18 18 18 17 17 17 17 16 16 16 15 15 15 15 14 14 13 13 13 13 13 13 12 12 12 12 13 12 12 12 12 12 12 11 11 10
21 21 20 20 20 20 19 19 18 18 18 17 17 16 16 15 15 14 14 14 14 13 13 13 12 12 12 12 12 12 12 12 12 12 12 12 12 12 12 12 12 11 11
20 20 20 20 20 20 19 18 18 17 17 17 16 16 15 15 14 14 13 13 13 12 12 12 12 12 12 12 12 12 12 12 12 12 12 12 12 12 12 12 12 12 11
19 19 20 20 20 19 19 18 17 17 16 16 15 15 14 14 14 13 13 13 13 12 12 12 12 12 12 12 12 12 12 12 12 12 12 12 12 12 12 12 12 12 12
18 18 19 19 19 19 18 17 16 15 14 14 14 13 13 13 13 13 13 12 12 12 12 12 12 12 12 12 11 12 12 12 12 13 13 13 13 13 12 12 12 12 12
18 18 18 18 18 18 17 16 15 14 13 13 13 13 13 13 13 12 12 12 12 11 11 11 11 11 11 11 10 10 10 10 11 12 12 12 12 12 12 12 12 12 12
17 17 17 17 17 17 16 15 14 13 12 12 12 12 12 12 12 11 11 11 11 11 11 10 10 10 9 10 9 9 10 10 10 11 11 11 12 12 12 12 12 12 12
15 15 16 16 15 15 14 14 13 13 13 12 11 11 11 11 11 11 11 11 11 10 10 10 10 9 9 9 9 9 9 9 9 9 10 10 11 11 11 11 11 11 11
14 14 14 14 14 13 13 13 13 12 12 11 12 12 12 11 11 11 11 10 10 10 9 9 9 9 8 8 8 8 8 8 8 7 8 8 8 9 9 9 9 10 10
13 13 13 14 13 13 13 12 12 12 12 12 12 12 11 11 11 10 10 9 9 8 8 8 8 8 7 7 7 7 6 5 5 5 5 6 6 7 7 8 8 9 9